| time (UTC) | temp C | wind direction | speed KPH | gust KPH | rain 1hr cm | rain 24hr cm | rain mn cm | humidity % | barometer mb |
| 20260504081516 | 11 | 162 | 6.4 | 14.5 | 0.00 | 0.00 | 0.00 | 70 | 1008.6 |
| 20260504044533 | 11 | 203 | 8.0 | 17.7 | 0.00 | 0.00 | 0.00 | 67 | 1010.7 |
| 20260504043028 | 11 | 208 | 4.8 | 16.1 | 0.00 | 0.00 | 0.00 | 67 | 1010.9 |
| 20260504041524 | 11 | 193 | 4.8 | 17.7 | 0.00 | 0.00 | 0.00 | 67 | 1010.9 |
| 20260504040037 | 11 | 198 | 4.8 | 12.9 | 0.00 | 0.00 | 0.00 | 68 | 1011.3 |
| 20260504034523 | 11 | 175 | 6.4 | 12.9 | 0.00 | 0.00 | 0.00 | 68 | 1011.3 |
| 20260504033022 | 11 | 192 | 3.2 | 11.3 | 0.00 | 0.00 | 0.00 | 68 | 1011.5 |
| 20260504031520 | 11 | 186 | 3.2 | 11.3 | 0.00 | 0.00 | 0.00 | 68 | 1011.6 |
| 20260504030019 | 11 | 185 | 1.6 | 9.7 | 0.00 | 0.00 | 0.00 | 69 | 1011.7 |
| 20260504024519 | 11 | 202 | 1.6 | 8.0 | 0.00 | 0.00 | 0.00 | 69 | 1011.8 |
| 20260504023018 | 11 | 187 | 3.2 | 8.0 | 0.00 | 0.00 | 0.00 | 69 | 1011.8 |
| 20260504021517 | 11 | 180 | 1.6 | 8.0 | 0.00 | 0.00 | 0.00 | 67 | 1011.7 |
| 20260504020016 | 11 | 166 | 3.2 | 11.3 | 0.00 | 0.00 | 0.00 | 67 | 1011.5 |
| 20260504014523 | 11 | 168 | 4.8 | 8.0 | 0.00 | 0.00 | 0.00 | 66 | 1011.5 |
| 20260504013017 | 12 | 177 | 3.2 | 12.9 | 0.00 | 0.00 | 0.00 | 65 | 1011.6 |
| 20260504011513 | 12 | 182 | 6.4 | 11.3 | 0.00 | 0.00 | 0.00 | 63 | 1011.6 |
| 20260504010011 | 12 | 183 | 6.4 | 11.3 | 0.00 | 0.00 | 0.00 | 64 | 1011.5 |
| 20260504004508 | 12 | 192 | 4.8 | 17.7 | 0.00 | 0.00 | 0.00 | 64 | 1011.1 |
| 20260504003009 | 12 | 191 | 4.8 | 22.5 | 0.00 | 0.00 | 0.00 | 64 | 1011.1 |
| 20260504001506 | 13 | 193 | 9.7 | 16.1 | 0.00 | 0.00 | 0.00 | 60 | 1011.6 |
| 20260504000004 | 13 | 201 | 6.4 | 16.1 | 0.00 | 0.00 | 0.00 | 55 | 1011.4 |
| 20260503234505 | 13 | 183 | 9.7 | 20.9 | 0.00 | 0.00 | 0.00 | 53 | 1011.6 |
| 20260503233001 | 14 | 170 | 8.0 | 27.4 | 0.00 | 0.00 | 0.00 | 51 | 1011.8 |
| 20260503231600 | 15 | 111 | 12.9 | 29.0 | 0.00 | 0.00 | 0.00 | 50 | 1011.5 |
| 20260503230103 | 15 | 177 | 12.9 | 24.1 | 0.00 | 0.00 | 0.00 | 48 | 1011.8 |
| 20260503224557 | 15 | 164 | 9.7 | 19.3 | 0.00 | 0.00 | 0.00 | 49 | 1012.0 |
| 20260503223055 | 15 | 192 | 11.3 | 27.4 | 0.00 | 0.00 | 0.00 | 48 | 1012.1 |
| 20260503221557 | 15 | 146 | 11.3 | 20.9 | 0.00 | 0.00 | 0.00 | 47 | 1012.4 |
| 20260503220053 | 16 | 271 | 14.5 | 30.6 | 0.00 | 0.00 | 0.00 | 45 | 1012.8 |
| 20260503214551 | 15 | 246 | 12.9 | 30.6 | 0.00 | 0.00 | 0.00 | 45 | 1012.9 |
| 20260503213051 | 16 | 244 | 12.9 | 35.4 | 0.00 | 0.00 | 0.00 | 43 | 1013.3 |
| 20260503211548 | 16 | 272 | 11.3 | 22.5 | 0.00 | 0.00 | 0.00 | 42 | 1013.4 |
| 20260503210044 | 16 | 235 | 8.0 | 33.8 | 0.00 | 0.00 | 0.00 | 44 | 1013.7 |
| 20260503204544 | 15 | 199 | 11.3 | 27.4 | 0.00 | 0.00 | 0.00 | 43 | 1013.8 |
| 20260503203043 | 15 | 207 | 9.7 | 40.2 | 0.00 | 0.00 | 0.00 | 43 | 1014.1 |
| 20260503201540 | 15 | 256 | 19.3 | 33.8 | 0.00 | 0.00 | 0.00 | 42 | 1014.5 |
| 20260503200039 | 15 | 243 | 14.5 | 33.8 | 0.00 | 0.00 | 0.00 | 42 | 1014.4 |
| 20260503194537 | 15 | 244 | 14.5 | 24.1 | 0.00 | 0.00 | 0.00 | 42 | 1014.5 |
| 20260503193040 | 15 | 216 | 16.1 | 24.1 | 0.00 | 0.00 | 0.00 | 43 | 1014.8 |
| 20260503191531 | 14 | 239 | 14.5 | 29.0 | 0.00 | 0.00 | 0.00 | 43 | 1015.1 |
| 20260503190031 | 14 | 284 | 8.0 | 27.4 | 0.00 | 0.00 | 0.00 | 46 | 1015.4 |
| 20260503184528 | 14 | 219 | 14.5 | 25.7 | 0.00 | 0.00 | 0.00 | 44 | 1015.8 |
| 20260503183025 | 14 | 161 | 11.3 | 24.1 | 0.00 | 0.00 | 0.00 | 44 | 1016.1 |
| 20260503181523 | 13 | 260 | 12.9 | 27.4 | 0.00 | 0.00 | 0.00 | 45 | 1016.5 |
| 20260503180021 | 13 | 198 | 12.9 | 27.4 | 0.00 | 0.00 | 0.00 | 43 | 1016.6 |
| 20260503174526 | 13 | 220 | 19.3 | 30.6 | 0.00 | 0.00 | 0.00 | 43 | 1016.7 |
| 20260503173023 | 14 | 212 | 9.7 | 33.8 | 0.00 | 0.00 | 0.00 | 46 | 1016.9 |
| 20260503171522 | 13 | 263 | 17.7 | 27.4 | 0.00 | 0.00 | 0.00 | 44 | 1017.0 |